Other Public Products
Issued by NWS Charleston, SC

Current Version | Previous Version | Graphics & Text | Print | Product List | Glossary On
Versions: 1 2 3 4 5 6 7 8 9 10 11 12 13 14 15 16 17 18 19 20 21 22 23 24 25 26 27 28 29 30 31 32 33 34 35 36 37 38 39 40 41 42 43 44 45 46 47 48 49 50
000
FPUS82 KCHS 250112
OPUCHS

TEST...KCHS/KSAV Gateway Observations...TEST
National Weather Service Charleston SC
900 PM EDT TUE APR 24 2018

NOTE: "fair" indicates few or no clouds below 12,000 feet with no
significant weather and/or obstructions to visibility.

SCZ050-WAZ558-NCZ071-TXZ119-213-PAZ071-DCZ001-FLZ074-172-MI076-
NYZ176-178-MAZ016-IL014-TNZ027-NJZ106-GAZ044-MD014-250200-

...Gateway Observations for Charleston International...

CITY           SKY/WX    TMP DP  RH WIND       PRES   REMARKS
Chas Airport   FAIR      66  60  81 S12       29.83R
Seattle        PTSUNNY   73  39  29 N10       30.06F
Charlotte      CLOUDY    63  62  97 N3        29.78F
Dallas DFW     MOCLDY    77  48  35 E8        29.98S
Dallas Love    CLOUDY    79  48  33 E7        29.99S
Philladelphia  LGT RAIN  56  47  71 E14       30.15F
Wash National  LGT RAIN  55  51  86 NE14      30.02F
Baltimore      LGT RAIN  53  53 100 E15       30.06F FOG
Miami          FAIR      79  71  76 SW12      29.96R
Detroit        CLOUDY    52  49  89 E7        29.99S FOG
Newark         CLOUDY    57  44  62 E6G16     30.22S
Laguardia      CLOUDY    58  40  51 SE12      30.22S
J F K          LGT RAIN  53  46  77 E14       30.23S
Boston Logan   CLOUDY    54  36  50 S13       30.27R
Ft. Lauderdale MOCLDY    77  74  90 CALM      29.94R
Chicago O`Hare FAIR      56  46  69 E9        29.99R
Chicago Midway FAIR      56  48  74 NE9       30.00R
Houston Bush   MOCLDY    78  59  51 NE6       29.98R
Houston Hobby  MOCLDY    75  62  64 S9        29.98R
Nashville      CLOUDY    60  53  77 NW13      29.94R
Atlanta        MOCLDY    63  57  81 NW10      29.88R

$$

GAZ044-118-TXZ119-213-NCZ071-DCZ001-MDZ014-506-PAZ021-071-NJZ106-
NYZ176-178-MAZ106-OHZ011-021-055-MIZ076-KYZ091-ILZ014-INZ047-
MNZ060-ONZ431-250200-

...Gateway Observations for Savannah International...

CITY           SKY/WX    TMP DP  RH WIND       PRES   REMARKS
Savannah Arpt  MOCLDY    69  56  62 W7        29.86R
Atlanta        MOCLDY    63  57  81 NW10      29.88R
Charlotte      CLOUDY    63  62  97 N3        29.78F
Dallas DFW     MOCLDY    77  48  35 E8        29.98S
Houston Bush   MOCLDY    78  59  51 NE6       29.98R
Wash National  LGT RAIN  55  51  86 NE14      30.02F
Wash Dulles    LGT RAIN  54  53  97 NE8       30.02F FOG
Baltimore      LGT RAIN  53  53 100 E15       30.06F FOG
Philadelphia   LGT RAIN  56  47  71 E14       30.15F
Newark         CLOUDY    57  44  62 E6G16     30.22S
Laguardia      CLOUDY    58  40  51 SE12      30.22S
J F K          LGT RAIN  53  46  77 E14       30.23S
Boston         CLOUDY    54  36  50 S13       30.27R
Pittsburg      LGT RAIN  51  50  96 E6        29.98S
Akron          CLOUDY    52  48  86 SE12      29.96S FOG
Cleveland      LGT RAIN  54  51  90 E8        29.98F
Cincinnati     CLOUDY    54  54 100 N7        29.89R
Columbus       CLOUDY    53  53 100 E5        29.90S
Detroit        CLOUDY    52  49  89 E7        29.99S FOG
Chicago O`Hare FAIR      56  46  69 E9        29.99R
Minneapolis    FAIR      54  32  43 N14G26    30.19R
Indianapolis   CLOUDY    55  52  89 N9        29.94R
Toronto Canada LGT RAIN  48  46  93 NE3       30.07F

$$




USA.gov is the U.S. government's official web portal to all federal, state and local government web resources and services.